JST112 NCRG-YSSY

Flight info

Callsign JST112
Flight time 6h 54m
Altitude 32000
Route BELIT1R BIXIT G594 OVTOS DCT ODUTI G595 NISET/N0442F340 G595 SARAP DCT MARLN
Aircraft A21N/M-SDE2E3FGHIRWXY/LB1

Departure

Time 2026-05-04 19:15
Airport Rarotonga International Airport (NCRG)

Arrival

Time 2026-05-05 02:10
Airport Sydney Kingsford Smith International Airport (YSSY)
Time Latitude Longitude Altitude Speed Heading
2026-05-04 19:08 -21.20061 -159.79816 29 ft 0 kts 282°
2026-05-04 19:09 -21.20065 -159.79830 29 ft 6 kts 244°
2026-05-04 19:09 -21.20105 -159.79837 29 ft 7 kts 169°
2026-05-04 19:09 -21.20157 -159.79827 29 ft 8 kts 170°
2026-05-04 19:09 -21.20220 -159.79823 30 ft 10 kts 187°
2026-05-04 19:10 -21.20256 -159.79883 31 ft 11 kts 279°
2026-05-04 19:10 -21.20253 -159.79975 30 ft 13 kts 268°
2026-05-04 19:10 -21.20255 -159.80082 29 ft 15 kts 269°
2026-05-04 19:10 -21.20257 -159.80202 28 ft 17 kts 269°
2026-05-04 19:11 -21.20260 -159.80334 29 ft 19 kts 269°
2026-05-04 19:11 -21.20258 -159.80479 29 ft 20 kts 271°
2026-05-04 19:11 -21.20257 -159.80635 29 ft 22 kts 269°
2026-05-04 19:11 -21.20258 -159.80802 31 ft 23 kts 269°
2026-05-04 19:12 -21.20259 -159.80978 33 ft 24 kts 270°
2026-05-04 19:12 -21.20259 -159.81339 35 ft 25 kts 270°
2026-05-04 19:12 -21.20256 -159.81522 35 ft 21 kts 277°
2026-05-04 19:13 -21.20220 -159.81605 34 ft 11 kts 301°
2026-05-04 19:13 -21.20247 -159.81663 34 ft 9 kts 168°
2026-05-04 19:13 -21.20258 -159.81630 34 ft 4 kts 89°
2026-05-04 19:13 -21.20258 -159.81627 34 ft 0 kts 88°
2026-05-04 19:14 -21.20258 -159.81496 35 ft 56 kts 90°
2026-05-04 19:14 -21.20258 -159.80779 31 ft 135 kts 90°
2026-05-04 19:15 -21.20248 -159.79621 355 ft 161 kts 91°
2026-05-04 19:15 -21.20150 -159.78410 1097 ft 171 kts 75°
2026-05-04 19:15 -21.19647 -159.77174 1775 ft 188 kts 77°
2026-05-04 19:15 -21.19302 -159.75741 2261 ft 209 kts 80°
2026-05-04 19:16 -21.18919 -159.74116 2614 ft 238 kts 78°
2026-05-04 19:16 -21.18484 -159.72346 3298 ft 251 kts 78°
2026-05-04 19:16 -21.18299 -159.70486 4021 ft 256 kts 102°
2026-05-04 19:16 -21.19054 -159.68782 4670 ft 258 kts 134°
2026-05-04 19:17 -21.20566 -159.67779 5266 ft 261 kts 167°
2026-05-04 19:17 -21.22365 -159.67807 5867 ft 262 kts 200°
2026-05-04 19:17 -21.23875 -159.68864 6471 ft 263 kts 232°
2026-05-04 19:17 -21.24906 -159.70495 7100 ft 265 kts 240°
2026-05-04 19:18 -21.25979 -159.72105 7816 ft 266 kts 230°
2026-05-04 19:18 -21.27336 -159.73464 8528 ft 269 kts 223°
2026-05-04 19:18 -21.28825 -159.74724 9134 ft 274 kts 223°
2026-05-04 19:18 -21.30130 -159.76216 9662 ft 278 kts 236°
2026-05-04 19:19 -21.31285 -159.77918 10153 ft 287 kts 237°
2026-05-04 19:19 -21.32483 -159.79710 10425 ft 303 kts 237°
2026-05-04 19:19 -21.33746 -159.81569 10668 ft 321 kts 236°
2026-05-04 19:19 -21.35096 -159.83526 11104 ft 330 kts 236°
2026-05-04 19:20 -21.36469 -159.85501 11706 ft 333 kts 236°
2026-05-04 19:20 -21.37860 -159.87498 12397 ft 334 kts 236°
2026-05-04 19:20 -21.39254 -159.89499 13038 ft 336 kts 236°
2026-05-04 19:20 -21.40657 -159.91513 13662 ft 339 kts 235°
2026-05-04 19:21 -21.42074 -159.93545 14222 ft 342 kts 235°
2026-05-04 19:21 -21.43507 -159.95598 14732 ft 345 kts 236°
2026-05-04 19:21 -21.44952 -159.97673 15256 ft 348 kts 236°
2026-05-04 19:21 -21.46403 -159.99759 15770 ft 351 kts 236°
2026-05-04 19:22 -21.47873 -160.01866 16288 ft 353 kts 237°
2026-05-04 19:22 -21.49353 -160.03991 16802 ft 356 kts 237°
2026-05-04 19:22 -21.50841 -160.06129 17314 ft 358 kts 237°
2026-05-04 19:22 -21.52338 -160.08284 17802 ft 361 kts 237°
2026-05-04 19:23 -21.53845 -160.10451 18278 ft 364 kts 238°
2026-05-04 19:23 -21.55366 -160.12639 18700 ft 366 kts 238°
2026-05-04 19:23 -21.56891 -160.14833 19117 ft 368 kts 238°
2026-05-04 19:23 -21.58428 -160.17047 19541 ft 370 kts 238°
2026-05-04 19:24 -21.59968 -160.19266 19966 ft 371 kts 238°
2026-05-04 19:24 -21.61518 -160.21498 20382 ft 373 kts 238°
2026-05-04 19:24 -21.63050 -160.23709 20784 ft 375 kts 238°
2026-05-04 19:24 -21.64612 -160.25963 21173 ft 377 kts 238°
2026-05-04 19:25 -21.66189 -160.28237 21590 ft 379 kts 238°
2026-05-04 19:25 -21.67766 -160.30518 21995 ft 381 kts 238°
2026-05-04 19:25 -21.69353 -160.32812 22385 ft 383 kts 238°
2026-05-04 19:25 -21.70946 -160.35114 22778 ft 385 kts 238°
2026-05-04 19:26 -21.72557 -160.37441 23158 ft 387 kts 238°
2026-05-04 19:26 -21.74165 -160.39772 23534 ft 389 kts 238°
2026-05-04 19:26 -21.75781 -160.42112 23846 ft 391 kts 238°
2026-05-04 19:26 -21.77408 -160.44466 24149 ft 393 kts 238°
2026-05-04 19:27 -21.79040 -160.46828 24444 ft 394 kts 238°
2026-05-04 19:27 -21.80679 -160.49203 24738 ft 396 kts 238°
2026-05-04 19:27 -21.82323 -160.51591 25041 ft 397 kts 238°
2026-05-04 19:27 -21.83970 -160.53983 25341 ft 399 kts 238°
2026-05-04 19:28 -21.85607 -160.56350 25630 ft 400 kts 238°
2026-05-04 19:28 -21.87292 -160.58788 25921 ft 401 kts 238°
2026-05-04 19:28 -21.88938 -160.61175 26200 ft 403 kts 238°
2026-05-04 19:28 -21.90612 -160.63608 26482 ft 404 kts 238°
2026-05-04 19:29 -21.92290 -160.66050 26765 ft 405 kts 238°
2026-05-04 19:29 -21.93970 -160.68492 27039 ft 407 kts 238°
2026-05-04 19:29 -21.95660 -160.70947 27319 ft 408 kts 238°
2026-05-04 19:29 -21.97361 -160.73406 27560 ft 410 kts 237°
2026-05-04 19:30 -21.99189 -160.75782 27811 ft 413 kts 234°
2026-05-04 19:30 -22.01063 -160.78143 28064 ft 414 kts 234°
2026-05-04 19:30 -22.02943 -160.80499 28310 ft 416 kts 234°
2026-05-04 19:30 -22.04834 -160.82866 28559 ft 417 kts 234°
2026-05-04 19:31 -22.06727 -160.85240 28810 ft 418 kts 234°
2026-05-04 19:31 -22.08622 -160.87622 29026 ft 419 kts 235°
2026-05-04 19:31 -22.10526 -160.90017 29257 ft 421 kts 235°
2026-05-04 19:31 -22.12433 -160.92416 29485 ft 422 kts 235°
2026-05-04 19:32 -22.14316 -160.94791 29693 ft 423 kts 235°
2026-05-04 19:32 -22.16240 -160.97221 29912 ft 425 kts 235°
2026-05-04 19:32 -22.18160 -160.99643 30129 ft 426 kts 235°
2026-05-04 19:32 -22.20091 -161.02074 30323 ft 427 kts 235°
2026-05-04 19:33 -22.22028 -161.04514 30507 ft 428 kts 235°
2026-05-04 19:33 -22.23966 -161.06963 30689 ft 429 kts 235°
2026-05-04 19:33 -22.25903 -161.09419 30932 ft 429 kts 235°
2026-05-04 19:33 -22.27831 -161.11863 31167 ft 428 kts 235°
2026-05-04 19:34 -22.29770 -161.14311 31403 ft 428 kts 235°
2026-05-04 19:34 -22.31698 -161.16747 31647 ft 427 kts 235°
2026-05-04 19:34 -22.33627 -161.19187 31878 ft 426 kts 235°
2026-05-04 19:34 -22.35552 -161.21624 32078 ft 426 kts 235°
2026-05-04 19:35 -22.37474 -161.24057 32118 ft 425 kts 235°
2026-05-04 19:35 -22.40660 -161.28093 32106 ft 424 kts 235°
2026-05-04 19:36 -22.44509 -161.32976 32097 ft 427 kts 235°
2026-05-04 19:36 -22.48356 -161.37868 32098 ft 426 kts 236°
2026-05-04 19:37 -22.52825 -161.43550 32094 ft 426 kts 236°
2026-05-04 19:37 -22.56036 -161.47634 32100 ft 426 kts 236°
2026-05-04 19:38 -22.59873 -161.52526 32101 ft 425 kts 236°
2026-05-04 19:38 -22.63706 -161.57397 32101 ft 425 kts 236°
2026-05-04 19:39 -22.67504 -161.62236 32099 ft 424 kts 236°
2026-05-04 19:39 -22.71315 -161.67107 32107 ft 423 kts 236°
2026-05-04 19:40 -22.75115 -161.71971 32109 ft 423 kts 236°
2026-05-04 19:40 -22.78916 -161.76838 32102 ft 422 kts 236°
2026-05-04 19:41 -22.82718 -161.81692 32112 ft 422 kts 236°
2026-05-04 19:41 -22.86512 -161.86548 32107 ft 422 kts 236°
2026-05-04 19:42 -22.90296 -161.91414 32112 ft 421 kts 236°
2026-05-04 19:42 -22.94077 -161.96271 32118 ft 421 kts 236°
2026-05-04 19:43 -22.97863 -162.01131 32117 ft 422 kts 236°
2026-05-04 19:43 -23.01637 -162.05999 32116 ft 422 kts 236°
2026-05-04 19:44 -23.05401 -162.10840 32114 ft 422 kts 236°
2026-05-04 19:44 -23.09186 -162.15711 32118 ft 422 kts 236°
2026-05-04 19:45 -23.12969 -162.20601 32123 ft 422 kts 236°
2026-05-04 19:45 -23.16748 -162.25493 32121 ft 423 kts 236°
2026-05-04 19:46 -23.20532 -162.30383 32126 ft 423 kts 236°
2026-05-04 19:46 -23.24323 -162.35285 32121 ft 423 kts 236°
2026-05-04 19:47 -23.28112 -162.40195 32123 ft 424 kts 236°
2026-05-04 19:47 -23.31877 -162.45077 32128 ft 424 kts 236°
2026-05-04 19:48 -23.35671 -162.49997 32128 ft 424 kts 236°
2026-05-04 19:48 -23.39468 -162.54919 32130 ft 424 kts 236°
2026-05-04 19:49 -23.43263 -162.59856 32132 ft 424 kts 237°
2026-05-04 19:49 -23.47019 -162.64752 32136 ft 424 kts 237°
2026-05-04 19:50 -23.50808 -162.69688 32135 ft 424 kts 237°
2026-05-04 19:50 -23.54596 -162.74620 32138 ft 424 kts 237°
2026-05-04 19:51 -23.58376 -162.79557 32136 ft 424 kts 237°
2026-05-04 19:51 -23.62158 -162.84498 32139 ft 424 kts 237°
2026-05-04 19:52 -23.65933 -162.89445 32145 ft 424 kts 237°
2026-05-04 19:52 -23.69713 -162.94387 32143 ft 424 kts 237°
2026-05-04 19:53 -23.73489 -162.99342 32146 ft 424 kts 237°
2026-05-04 19:53 -23.77240 -163.04260 32146 ft 423 kts 237°
2026-05-04 19:54 -23.81005 -163.09206 32152 ft 423 kts 237°
2026-05-04 19:54 -23.84759 -163.14143 32144 ft 423 kts 237°
2026-05-04 19:55 -23.88520 -163.19089 32141 ft 422 kts 237°
2026-05-04 19:55 -23.92265 -163.24025 32152 ft 422 kts 237°
2026-05-04 19:56 -23.96010 -163.28962 32160 ft 421 kts 237°
2026-05-04 19:56 -23.99742 -163.33894 32150 ft 421 kts 237°
2026-05-04 19:57 -24.03474 -163.38823 32163 ft 420 kts 237°
2026-05-04 19:57 -24.07200 -163.43752 32169 ft 420 kts 237°
2026-05-04 19:58 -24.10917 -163.48675 32170 ft 419 kts 237°
2026-05-04 19:58 -24.14646 -163.53599 32166 ft 419 kts 237°
2026-05-04 19:59 -24.18348 -163.58516 32166 ft 418 kts 237°
2026-05-04 19:59 -24.22046 -163.63429 32171 ft 418 kts 237°
2026-05-04 20:00 -24.25741 -163.68345 32171 ft 417 kts 237°
2026-05-04 20:00 -24.29400 -163.73214 32176 ft 417 kts 237°
2026-05-04 20:01 -24.33082 -163.78121 32176 ft 416 kts 237°
2026-05-04 20:01 -24.36762 -163.83026 32180 ft 416 kts 237°
2026-05-04 20:02 -24.40428 -163.87919 32181 ft 415 kts 237°
2026-05-04 20:02 -24.44100 -163.92824 32180 ft 415 kts 237°
2026-05-04 20:03 -24.47769 -163.97728 32183 ft 415 kts 237°
2026-05-04 20:03 -24.51405 -164.02595 32184 ft 415 kts 237°
2026-05-04 20:04 -24.55072 -164.07504 32188 ft 415 kts 237°
2026-05-04 20:04 -24.58726 -164.12414 32190 ft 415 kts 237°
2026-05-04 20:05 -24.62390 -164.17324 32192 ft 415 kts 237°
2026-05-04 20:05 -24.66052 -164.22246 32191 ft 416 kts 237°
2026-05-04 20:06 -24.69717 -164.27180 32193 ft 417 kts 237°
2026-05-04 20:06 -24.73378 -164.32117 32192 ft 417 kts 237°
2026-05-04 20:07 -24.77050 -164.37066 32195 ft 418 kts 237°
2026-05-04 20:07 -24.80725 -164.42023 32194 ft 418 kts 237°
2026-05-04 20:08 -24.84402 -164.46998 32197 ft 419 kts 237°
2026-05-04 20:08 -24.88063 -164.51942 32198 ft 420 kts 238°
2026-05-04 20:09 -24.91754 -164.56933 32196 ft 420 kts 238°
2026-05-04 20:09 -24.95445 -164.61936 32200 ft 420 kts 238°
2026-05-04 20:10 -24.99135 -164.66938 32202 ft 420 kts 238°
2026-05-04 20:10 -25.02818 -164.71947 32207 ft 421 kts 238°
2026-05-04 20:11 -25.06509 -164.76959 32210 ft 421 kts 238°
2026-05-04 20:11 -25.10190 -164.81967 32212 ft 421 kts 238°
2026-05-04 20:12 -25.13873 -164.86994 32207 ft 420 kts 238°
2026-05-04 20:12 -25.17553 -164.92012 32208 ft 421 kts 238°
2026-05-04 20:13 -25.21232 -164.97042 32210 ft 421 kts 238°
2026-05-04 20:13 -25.24225 -165.02419 32211 ft 408 kts 254°
2026-05-04 20:14 -25.26116 -165.08305 32212 ft 406 kts 256°
2026-05-04 20:14 -25.27989 -165.14210 32214 ft 407 kts 256°
2026-05-04 20:15 -25.29879 -165.20112 32212 ft 407 kts 256°
2026-05-04 20:15 -25.31771 -165.26008 32217 ft 407 kts 256°
2026-05-04 20:16 -25.33657 -165.31905 32217 ft 407 kts 256°
2026-05-04 20:16 -25.35542 -165.37813 32217 ft 407 kts 256°
2026-05-04 20:17 -25.37425 -165.43720 32219 ft 407 kts 256°
2026-05-04 20:17 -25.39304 -165.49624 32223 ft 407 kts 256°
2026-05-04 20:18 -25.41164 -165.55490 32224 ft 406 kts 256°
2026-05-04 20:18 -25.43034 -165.61386 32222 ft 405 kts 256°
2026-05-04 20:19 -25.44898 -165.67263 32225 ft 405 kts 256°
2026-05-04 20:19 -25.46754 -165.73145 32226 ft 404 kts 256°
2026-05-04 20:20 -25.48608 -165.79017 32229 ft 404 kts 256°
2026-05-04 20:20 -25.50458 -165.84871 32228 ft 403 kts 256°
2026-05-04 20:21 -25.52300 -165.90731 32227 ft 402 kts 256°
2026-05-04 20:21 -25.54748 -165.98515 32227 ft 401 kts 256°
2026-05-04 20:22 -25.56579 -166.04348 32231 ft 401 kts 256°
2026-05-04 20:22 -25.58403 -166.10177 32232 ft 400 kts 256°
2026-05-04 20:23 -25.60228 -166.16004 32231 ft 400 kts 256°
2026-05-04 20:23 -25.62042 -166.21821 32230 ft 399 kts 256°
2026-05-04 20:24 -25.63848 -166.27633 32237 ft 399 kts 257°
2026-05-04 20:24 -25.65644 -166.33409 32234 ft 398 kts 257°
2026-05-04 20:25 -25.67449 -166.39212 32233 ft 398 kts 256°
2026-05-04 20:25 -25.69259 -166.45026 32233 ft 398 kts 256°
2026-05-04 20:26 -25.71058 -166.50838 32235 ft 398 kts 256°
2026-05-04 20:26 -25.72859 -166.56642 32234 ft 398 kts 256°
2026-05-04 20:27 -25.74649 -166.62448 32241 ft 398 kts 256°
2026-05-04 20:27 -25.76434 -166.68217 32232 ft 397 kts 256°
2026-05-04 20:28 -25.78217 -166.74019 32238 ft 397 kts 256°
2026-05-04 20:28 -25.79995 -166.79822 32239 ft 397 kts 257°
2026-05-04 20:29 -25.81784 -166.85631 32244 ft 397 kts 257°
2026-05-04 20:29 -25.83561 -166.91450 32244 ft 398 kts 257°
2026-05-04 20:30 -25.85323 -166.97234 32238 ft 398 kts 257°
2026-05-04 20:30 -25.87122 -167.03077 32241 ft 397 kts 257°
2026-05-04 20:31 -25.88896 -167.08890 32239 ft 397 kts 257°
2026-05-04 20:31 -25.90655 -167.14676 32250 ft 398 kts 257°
2026-05-04 20:32 -25.92429 -167.20507 32241 ft 398 kts 257°
2026-05-04 20:32 -25.94201 -167.26349 32249 ft 399 kts 257°
2026-05-04 20:33 -25.95968 -167.32191 32246 ft 399 kts 257°
2026-05-04 20:33 -25.97740 -167.38042 32245 ft 400 kts 257°
2026-05-04 20:34 -25.99510 -167.43899 32246 ft 400 kts 257°
2026-05-04 20:34 -26.01280 -167.49773 32245 ft 400 kts 257°
2026-05-04 20:35 -26.03033 -167.55616 32247 ft 401 kts 257°
2026-05-04 20:35 -26.04802 -167.61509 32246 ft 401 kts 257°
2026-05-04 20:36 -26.06571 -167.67403 32250 ft 402 kts 257°
2026-05-04 20:36 -26.08336 -167.73305 32250 ft 402 kts 257°
2026-05-04 20:37 -26.10101 -167.79218 32252 ft 403 kts 257°
2026-05-04 20:37 -26.11868 -167.85140 32252 ft 403 kts 257°
2026-05-04 20:38 -26.13635 -167.91063 32251 ft 404 kts 257°
2026-05-04 20:38 -26.15401 -167.96997 32249 ft 403 kts 257°
2026-05-04 20:39 -26.17152 -168.02897 32252 ft 403 kts 257°
2026-05-04 20:39 -26.18913 -168.08832 32255 ft 403 kts 257°
2026-05-04 20:40 -26.20664 -168.14759 32256 ft 403 kts 257°
2026-05-04 20:40 -26.22422 -168.20684 32256 ft 402 kts 257°
2026-05-04 20:41 -26.24168 -168.26613 32258 ft 402 kts 257°
2026-05-04 20:41 -26.25912 -168.32530 32258 ft 402 kts 257°
2026-05-04 20:42 -26.27652 -168.38449 32254 ft 402 kts 257°
2026-05-04 20:42 -26.29390 -168.44369 32254 ft 402 kts 257°
2026-05-04 20:43 -26.31126 -168.50303 32258 ft 402 kts 257°
2026-05-04 20:43 -26.32859 -168.56234 32257 ft 403 kts 257°
2026-05-04 20:44 -26.34570 -168.62092 32258 ft 403 kts 257°
2026-05-04 20:44 -26.36311 -168.68072 32256 ft 403 kts 257°
2026-05-04 20:45 -26.38048 -168.74012 32263 ft 403 kts 257°
2026-05-04 20:45 -26.39772 -168.79960 32260 ft 403 kts 257°
2026-05-04 20:46 -26.41501 -168.85922 32265 ft 404 kts 257°
2026-05-04 20:46 -26.43231 -168.91883 32264 ft 404 kts 256°
2026-05-04 20:47 -26.44960 -168.97847 32264 ft 404 kts 256°
2026-05-04 20:47 -26.46688 -169.03826 32264 ft 405 kts 256°
2026-05-04 20:48 -26.48411 -169.09804 32261 ft 405 kts 256°
2026-05-04 20:48 -26.50132 -169.15798 32264 ft 405 kts 256°
2026-05-04 20:49 -26.51840 -169.21752 32263 ft 405 kts 256°
2026-05-04 20:49 -26.53551 -169.27748 32267 ft 405 kts 256°
2026-05-04 20:50 -26.55263 -169.33743 32271 ft 405 kts 256°
2026-05-04 20:50 -26.56980 -169.39746 32273 ft 406 kts 256°
2026-05-04 20:51 -26.58683 -169.45724 32268 ft 406 kts 257°
2026-05-04 20:51 -26.60388 -169.51740 32275 ft 406 kts 256°
2026-05-04 20:52 -26.62101 -169.57765 32274 ft 407 kts 256°
2026-05-04 20:52 -26.63815 -169.63791 32276 ft 407 kts 256°
2026-05-04 20:53 -26.65523 -169.69834 32277 ft 408 kts 256°
2026-05-04 20:53 -26.67230 -169.75891 32280 ft 408 kts 256°
2026-05-04 20:54 -26.68943 -169.81953 32278 ft 409 kts 256°
2026-05-04 20:54 -26.70662 -169.88023 32279 ft 410 kts 256°
2026-05-04 20:55 -26.72376 -169.94101 32279 ft 410 kts 256°
2026-05-04 20:55 -26.74104 -170.00157 32282 ft 412 kts 253°
2026-05-04 20:56 -26.76211 -170.06139 32285 ft 414 kts 252°
2026-05-04 20:56 -26.78353 -170.12125 32283 ft 414 kts 252°
2026-05-04 20:57 -26.80482 -170.18123 32284 ft 415 kts 252°
2026-05-04 20:57 -26.82612 -170.24133 32285 ft 415 kts 252°
2026-05-04 20:58 -26.84731 -170.30119 32286 ft 416 kts 252°
2026-05-04 20:58 -26.86864 -170.36136 32290 ft 416 kts 251°
2026-05-04 20:59 -26.88998 -170.42160 32291 ft 416 kts 251°
2026-05-04 20:59 -26.91125 -170.48214 32287 ft 417 kts 251°
2026-05-04 21:00 -26.93254 -170.54273 32289 ft 417 kts 251°
2026-05-04 21:00 -26.95381 -170.60331 32296 ft 418 kts 251°
2026-05-04 21:01 -26.97511 -170.66401 32299 ft 419 kts 251°
2026-05-04 21:01 -26.99641 -170.72475 32296 ft 419 kts 251°
2026-05-04 21:02 -27.01769 -170.78525 32291 ft 420 kts 251°
2026-05-04 21:02 -27.03900 -170.84621 32295 ft 420 kts 251°
2026-05-04 21:03 -27.06030 -170.90728 32295 ft 420 kts 251°
2026-05-04 21:03 -27.08160 -170.96850 32302 ft 421 kts 251°
2026-05-04 21:04 -27.10280 -171.02941 32296 ft 421 kts 251°
2026-05-04 21:04 -27.12410 -171.09071 32296 ft 421 kts 251°
2026-05-04 21:05 -27.14540 -171.15202 32300 ft 422 kts 251°
2026-05-04 21:05 -27.16662 -171.21352 32304 ft 422 kts 251°
2026-05-04 21:06 -27.18786 -171.27499 32298 ft 422 kts 251°
2026-05-04 21:06 -27.20912 -171.33661 32306 ft 423 kts 251°
2026-05-04 21:07 -27.23034 -171.39820 32303 ft 423 kts 251°
2026-05-04 21:07 -27.25151 -171.45986 32304 ft 423 kts 251°
2026-05-04 21:08 -27.27272 -171.52152 32305 ft 423 kts 251°
2026-05-04 21:08 -27.29034 -171.57287 32305 ft 423 kts 251°
2026-05-04 21:09 -27.31495 -171.64482 32307 ft 423 kts 251°
2026-05-04 21:09 -27.33249 -171.69615 32306 ft 423 kts 251°
2026-05-04 21:10 -27.35359 -171.75808 32309 ft 423 kts 251°
2026-05-04 21:10 -27.37460 -171.81996 32310 ft 423 kts 251°
2026-05-04 21:11 -27.39557 -171.88190 32310 ft 423 kts 251°
2026-05-04 21:11 -27.41657 -171.94371 32314 ft 423 kts 251°
2026-05-04 21:12 -27.43756 -172.00568 32311 ft 423 kts 251°
2026-05-04 21:12 -27.45856 -172.06762 32308 ft 423 kts 251°
2026-05-04 21:13 -27.47925 -172.12928 32312 ft 423 kts 251°
2026-05-04 21:13 -27.50013 -172.19127 32313 ft 423 kts 251°
2026-05-04 21:14 -27.52104 -172.25340 32314 ft 424 kts 251°
2026-05-04 21:14 -27.54179 -172.31515 32313 ft 424 kts 251°
2026-05-04 21:15 -27.56264 -172.37717 32316 ft 424 kts 251°
2026-05-04 21:15 -27.58374 -172.44000 32311 ft 424 kts 251°
2026-05-04 21:16 -27.60440 -172.50190 32316 ft 424 kts 251°
2026-05-04 21:16 -27.62525 -172.56457 32318 ft 425 kts 251°
2026-05-04 21:17 -27.64588 -172.62652 32316 ft 425 kts 251°
2026-05-04 21:17 -27.66663 -172.68895 32316 ft 425 kts 251°
2026-05-04 21:18 -27.68735 -172.75143 32322 ft 425 kts 251°
2026-05-04 21:18 -27.70806 -172.81396 32320 ft 425 kts 251°
2026-05-04 21:19 -27.72884 -172.87655 32320 ft 425 kts 251°
2026-05-04 21:19 -27.74951 -172.93909 32318 ft 426 kts 251°
2026-05-04 21:20 -27.77014 -173.00175 32321 ft 426 kts 251°
2026-05-04 21:20 -27.79073 -173.06451 32321 ft 426 kts 252°
2026-05-04 21:21 -27.81130 -173.12724 32323 ft 426 kts 252°
2026-05-04 21:21 -27.83188 -173.19007 32321 ft 426 kts 252°
2026-05-04 21:22 -27.85244 -173.25295 32323 ft 426 kts 252°
2026-05-04 21:22 -27.87301 -173.31590 32325 ft 427 kts 252°
2026-05-04 21:23 -27.89342 -173.37842 32325 ft 427 kts 252°
2026-05-04 21:23 -27.91391 -173.44139 32320 ft 427 kts 252°
2026-05-04 21:24 -27.93440 -173.50443 32317 ft 427 kts 252°
2026-05-04 21:24 -27.95493 -173.56746 32319 ft 427 kts 252°
2026-05-04 21:25 -27.97528 -173.63059 32331 ft 427 kts 252°
2026-05-04 21:25 -27.99564 -173.69371 32324 ft 427 kts 252°
2026-05-04 21:26 -28.01601 -173.75690 32333 ft 427 kts 252°
2026-05-04 21:26 -28.03629 -173.81972 32335 ft 427 kts 252°
2026-05-04 21:27 -28.05657 -173.88296 32327 ft 427 kts 252°
2026-05-04 21:27 -28.07690 -173.94619 32327 ft 427 kts 252°
2026-05-04 21:28 -28.09714 -174.00941 32321 ft 427 kts 252°
2026-05-04 21:28 -28.11743 -174.07281 32330 ft 428 kts 252°
2026-05-04 21:29 -28.13762 -174.13620 32325 ft 427 kts 252°
2026-05-04 21:29 -28.15781 -174.19954 32335 ft 427 kts 252°
2026-05-04 21:30 -28.17798 -174.26296 32332 ft 428 kts 252°
2026-05-04 21:30 -28.19814 -174.32642 32338 ft 428 kts 252°
2026-05-04 21:31 -28.22823 -174.42157 32342 ft 427 kts 252°
2026-05-04 21:32 -28.24835 -174.48512 32344 ft 428 kts 252°
2026-05-04 21:32 -28.26838 -174.54817 32340 ft 428 kts 252°
2026-05-04 21:33 -28.28839 -174.61176 32340 ft 428 kts 252°
2026-05-04 21:33 -28.30830 -174.67541 32357 ft 428 kts 253°
2026-05-04 21:34 -28.32824 -174.73916 32339 ft 428 kts 252°
2026-05-04 21:34 -28.34820 -174.80291 32351 ft 428 kts 252°
2026-05-04 21:35 -28.36810 -174.86668 32347 ft 428 kts 252°
2026-05-04 21:35 -28.38808 -174.93046 32345 ft 429 kts 253°
2026-05-04 21:36 -28.40780 -174.99391 32348 ft 429 kts 253°
2026-05-04 21:36 -28.42761 -175.05785 32358 ft 428 kts 253°
2026-05-04 21:37 -28.44745 -175.12172 32349 ft 429 kts 253°
2026-05-04 21:37 -28.46730 -175.18560 32349 ft 429 kts 253°
2026-05-04 21:38 -28.48708 -175.24967 32348 ft 429 kts 253°
2026-05-04 21:38 -28.50683 -175.31373 32351 ft 429 kts 253°
2026-05-04 21:39 -28.52652 -175.37781 32352 ft 429 kts 253°
2026-05-04 21:39 -28.54619 -175.44191 32350 ft 429 kts 253°
2026-05-04 21:40 -28.56588 -175.50609 32354 ft 429 kts 253°
2026-05-04 21:40 -28.58540 -175.56980 32354 ft 429 kts 253°
2026-05-04 21:41 -28.60507 -175.63407 32356 ft 429 kts 253°
2026-05-04 21:41 -28.62462 -175.69830 32349 ft 430 kts 253°
2026-05-04 21:42 -28.64417 -175.76258 32356 ft 430 kts 253°
2026-05-04 21:42 -28.66373 -175.82691 32356 ft 430 kts 253°
2026-05-04 21:43 -28.68331 -175.89128 32355 ft 430 kts 253°
2026-05-04 21:43 -28.70265 -175.95536 32355 ft 430 kts 253°
2026-05-04 21:44 -28.72207 -176.01988 32361 ft 430 kts 253°
2026-05-04 21:44 -28.74157 -176.08449 32354 ft 431 kts 253°
2026-05-04 21:45 -28.76106 -176.14919 32358 ft 431 kts 253°
2026-05-04 21:45 -28.78048 -176.21392 32353 ft 431 kts 253°
2026-05-04 21:46 -28.79985 -176.27864 32357 ft 431 kts 253°
2026-05-04 21:46 -28.81924 -176.34348 32359 ft 432 kts 253°
2026-05-04 21:47 -28.83857 -176.40828 32358 ft 432 kts 253°
2026-05-04 21:47 -28.85775 -176.47279 32359 ft 432 kts 253°
2026-05-04 21:48 -28.87727 -176.53811 32357 ft 432 kts 253°
2026-05-04 21:48 -28.89656 -176.60309 32359 ft 432 kts 254°
2026-05-04 21:49 -28.91565 -176.66764 32359 ft 432 kts 254°
2026-05-04 21:49 -28.93492 -176.73276 32357 ft 433 kts 254°
2026-05-04 21:50 -28.95407 -176.79799 32356 ft 433 kts 254°
2026-05-04 21:50 -28.97334 -176.86322 32359 ft 433 kts 254°
2026-05-04 21:51 -28.99254 -176.92848 32358 ft 434 kts 254°
2026-05-04 21:51 -29.00846 -176.98270 32359 ft 434 kts 254°
2026-05-04 21:52 -29.03083 -177.05914 32363 ft 434 kts 254°
2026-05-04 21:52 -29.04661 -177.11353 32361 ft 434 kts 255°
2026-05-04 21:53 -29.06569 -177.17901 32361 ft 434 kts 254°
2026-05-04 21:53 -29.08475 -177.24450 32362 ft 434 kts 254°
2026-05-04 21:54 -29.10377 -177.31023 32361 ft 435 kts 254°
2026-05-04 21:54 -29.12279 -177.37594 32359 ft 435 kts 254°
2026-05-04 21:55 -29.14182 -177.44173 32365 ft 436 kts 255°
2026-05-04 21:55 -29.16094 -177.50766 32364 ft 436 kts 255°
2026-05-04 21:56 -29.17978 -177.57312 32360 ft 436 kts 255°
2026-05-04 21:56 -29.19871 -177.63911 32361 ft 437 kts 255°
2026-05-04 21:57 -29.21759 -177.70523 32362 ft 438 kts 255°
2026-05-04 21:57 -29.23651 -177.77149 32365 ft 437 kts 255°
2026-05-04 21:58 -29.25550 -177.83765 32363 ft 438 kts 255°
2026-05-04 21:58 -29.27434 -177.90397 32365 ft 438 kts 255°
2026-05-04 21:59 -29.29322 -177.97043 32361 ft 439 kts 255°
2026-05-04 21:59 -29.31216 -178.03695 32360 ft 439 kts 255°
2026-05-04 22:00 -29.33092 -178.10318 32363 ft 439 kts 255°
2026-05-04 22:00 -29.34970 -178.16980 32369 ft 439 kts 255°
2026-05-04 22:01 -29.36842 -178.23644 32366 ft 439 kts 255°
2026-05-04 22:01 -29.38717 -178.30308 32361 ft 439 kts 255°
2026-05-04 22:02 -29.40594 -178.36973 32364 ft 439 kts 255°
2026-05-04 22:02 -29.42466 -178.43648 32364 ft 440 kts 255°
2026-05-04 22:03 -29.44328 -178.50328 32359 ft 440 kts 255°
2026-05-04 22:03 -29.46189 -178.57014 32366 ft 439 kts 255°
2026-05-04 22:04 -29.48053 -178.63696 32362 ft 440 kts 255°
2026-05-04 22:04 -29.49895 -178.70336 32363 ft 439 kts 255°
2026-05-04 22:05 -29.51755 -178.77028 32364 ft 439 kts 255°
2026-05-04 22:05 -29.53604 -178.83722 32363 ft 439 kts 255°
2026-05-04 22:06 -29.55452 -178.90418 32361 ft 440 kts 255°
2026-05-04 22:06 -29.57292 -178.97117 32364 ft 439 kts 255°
2026-05-04 22:07 -29.59129 -179.03819 32365 ft 439 kts 255°
2026-05-04 22:07 -29.60967 -179.10519 32365 ft 440 kts 255°
2026-05-04 22:08 -29.62811 -179.17232 32365 ft 440 kts 255°
2026-05-04 22:08 -29.64633 -179.23910 32369 ft 440 kts 255°
2026-05-04 22:09 -29.66461 -179.30637 32368 ft 440 kts 255°
2026-05-04 22:09 -29.68288 -179.37365 32364 ft 440 kts 255°
2026-05-04 22:10 -29.70114 -179.44088 32367 ft 441 kts 255°
2026-05-04 22:10 -29.71932 -179.50831 32369 ft 441 kts 255°
2026-05-04 22:11 -29.73749 -179.57569 32367 ft 440 kts 256°
2026-05-04 22:11 -29.75559 -179.64297 32373 ft 440 kts 255°
2026-05-04 22:12 -29.77356 -179.70973 32374 ft 440 kts 256°
2026-05-04 22:12 -29.79164 -179.77699 32372 ft 439 kts 255°
2026-05-04 22:13 -29.80961 -179.84428 32372 ft 440 kts 256°
2026-05-04 22:13 -29.82755 -179.91157 32370 ft 439 kts 256°
2026-05-04 22:14 -29.84542 -179.97880 32375 ft 439 kts 256°
2026-05-04 22:14 -29.86328 179.95395 32372 ft 439 kts 256°
2026-05-04 22:15 -29.88104 179.88710 32373 ft 438 kts 256°
2026-05-04 22:15 -29.89880 179.81994 32374 ft 438 kts 255°
2026-05-04 22:16 -29.91655 179.75293 32381 ft 437 kts 256°
2026-05-04 22:16 -29.93422 179.68599 32374 ft 436 kts 256°
2026-05-04 22:17 -29.95175 179.61902 32369 ft 436 kts 256°
2026-05-04 22:17 -29.96926 179.55215 32372 ft 435 kts 255°
2026-05-04 22:18 -29.98681 179.48511 32374 ft 437 kts 256°
2026-05-04 22:18 -30.00417 179.41861 32370 ft 435 kts 255°
2026-05-04 22:19 -30.02158 179.35167 32370 ft 435 kts 256°
2026-05-04 22:19 -30.03890 179.28473 32373 ft 435 kts 256°
2026-05-04 22:20 -30.05626 179.21775 32371 ft 435 kts 256°
2026-05-04 22:20 -30.07359 179.15082 32377 ft 434 kts 256°
2026-05-04 22:21 -30.09081 179.08399 32377 ft 435 kts 256°
2026-05-04 22:21 -30.10803 179.01711 32375 ft 434 kts 256°
2026-05-04 22:22 -30.12517 178.95019 32372 ft 435 kts 256°
2026-05-04 22:22 -30.14244 178.88309 32369 ft 435 kts 256°
2026-05-04 22:23 -30.15950 178.81656 32370 ft 434 kts 256°
2026-05-04 22:23 -30.17670 178.74910 32369 ft 435 kts 256°
2026-05-04 22:24 -30.19356 178.68246 32375 ft 435 kts 256°
2026-05-04 22:24 -30.21056 178.61539 32379 ft 434 kts 256°
2026-05-04 22:25 -30.22757 178.54844 32373 ft 434 kts 256°
2026-05-04 22:25 -30.24450 178.48138 32369 ft 434 kts 256°
2026-05-04 22:26 -30.26143 178.41439 32371 ft 433 kts 256°
2026-05-04 22:26 -30.27822 178.34746 32372 ft 433 kts 256°
2026-05-04 22:27 -30.29495 178.28052 32370 ft 433 kts 256°
2026-05-04 22:27 -30.31170 178.21351 32370 ft 433 kts 256°
2026-05-04 22:28 -30.32840 178.14663 32371 ft 432 kts 256°
2026-05-04 22:28 -30.34505 178.07971 32370 ft 432 kts 256°
2026-05-04 22:29 -30.36159 178.01317 32376 ft 432 kts 256°
2026-05-04 22:29 -30.37819 177.94592 32373 ft 431 kts 256°
2026-05-04 22:30 -30.39460 177.87950 32375 ft 431 kts 256°
2026-05-04 22:30 -30.41116 177.81272 32370 ft 431 kts 256°
2026-05-04 22:31 -30.42758 177.74598 32377 ft 431 kts 256°
2026-05-04 22:31 -30.44389 177.67915 32379 ft 431 kts 256°
2026-05-04 22:32 -30.46023 177.61229 32379 ft 431 kts 256°
2026-05-04 22:32 -30.47664 177.54552 32374 ft 431 kts 256°
2026-05-04 22:33 -30.49294 177.47861 32372 ft 431 kts 257°
2026-05-04 22:33 -30.50919 177.41175 32375 ft 431 kts 257°
2026-05-04 22:34 -30.52522 177.34534 32375 ft 431 kts 257°
2026-05-04 22:34 -30.54135 177.27842 32377 ft 431 kts 257°
2026-05-04 22:35 -30.55763 177.21112 32380 ft 431 kts 257°
2026-05-04 22:35 -30.57363 177.14458 32378 ft 431 kts 257°
2026-05-04 22:36 -30.58984 177.07716 32372 ft 431 kts 257°
2026-05-04 22:36 -30.60577 177.01055 32375 ft 431 kts 257°
2026-05-04 22:37 -30.62187 176.94343 32376 ft 431 kts 257°
2026-05-04 22:37 -30.63780 176.87623 32376 ft 432 kts 257°
2026-05-04 22:38 -30.65109 176.82037 32378 ft 432 kts 257°
2026-05-04 22:38 -30.66709 176.75309 32374 ft 432 kts 257°
2026-05-04 22:39 -30.68304 176.68581 32371 ft 432 kts 257°
2026-05-04 22:39 -30.70156 176.60742 32371 ft 432 kts 257°
2026-05-04 22:40 -30.71484 176.55097 32372 ft 432 kts 257°
2026-05-04 22:40 -30.73065 176.48372 32368 ft 431 kts 257°
2026-05-04 22:41 -30.74630 176.41691 32372 ft 430 kts 257°
2026-05-04 22:41 -30.76199 176.34977 32371 ft 430 kts 257°
2026-05-04 22:42 -30.77755 176.28260 32373 ft 430 kts 257°
2026-05-04 22:42 -30.79317 176.21560 32372 ft 429 kts 257°
2026-05-04 22:43 -30.80875 176.14859 32416 ft 427 kts 257°
2026-05-04 22:43 -30.82430 176.08103 32383 ft 433 kts 257°
2026-05-04 22:44 -30.83978 176.01383 32373 ft 432 kts 257°
2026-05-04 22:44 -30.85530 175.94632 32380 ft 432 kts 257°
2026-05-04 22:45 -30.87089 175.87877 32379 ft 431 kts 257°
2026-05-04 22:45 -30.89392 175.77769 32372 ft 430 kts 257°
2026-05-04 22:46 -30.90926 175.71039 32374 ft 429 kts 257°
2026-05-04 22:46 -30.92347 175.64295 32370 ft 428 kts 258°
2026-05-04 22:47 -30.93762 175.57550 32371 ft 428 kts 257°
2026-05-04 22:47 -30.95161 175.50848 32369 ft 429 kts 257°
2026-05-04 22:48 -30.96576 175.44106 32369 ft 427 kts 257°
2026-05-04 22:48 -30.97985 175.37380 32368 ft 427 kts 257°
2026-05-04 22:49 -30.99392 175.30662 32372 ft 426 kts 257°
2026-05-04 22:49 -31.00785 175.23950 32373 ft 426 kts 257°
2026-05-04 22:50 -31.02193 175.17239 32372 ft 426 kts 257°
2026-05-04 22:50 -31.03590 175.10521 32370 ft 426 kts 257°
2026-05-04 22:51 -31.04976 175.03805 32369 ft 426 kts 257°
2026-05-04 22:51 -31.06348 174.97139 32371 ft 426 kts 257°
2026-05-04 22:52 -31.07723 174.90426 32368 ft 425 kts 257°
2026-05-04 22:52 -31.09101 174.83722 32367 ft 425 kts 257°
2026-05-04 22:53 -31.10471 174.77020 32376 ft 425 kts 257°
2026-05-04 22:53 -31.11837 174.70320 32375 ft 424 kts 256°
2026-05-04 22:54 -31.13196 174.63623 32373 ft 424 kts 256°
2026-05-04 22:54 -31.14556 174.56932 32371 ft 423 kts 256°
2026-05-04 22:55 -31.15899 174.50244 32370 ft 423 kts 256°
2026-05-04 22:55 -31.17245 174.43567 32371 ft 423 kts 256°
2026-05-04 22:56 -31.18580 174.36875 32371 ft 423 kts 256°
2026-05-04 22:56 -31.19923 174.30196 32374 ft 423 kts 256°
2026-05-04 22:57 -31.21263 174.23516 32375 ft 422 kts 256°
2026-05-04 22:57 -31.22591 174.16867 32373 ft 423 kts 256°
2026-05-04 22:58 -31.23919 174.10177 32375 ft 422 kts 256°
2026-05-04 22:58 -31.25244 174.03489 32376 ft 422 kts 256°
2026-05-04 22:59 -31.26558 173.96793 32375 ft 422 kts 256°
2026-05-04 22:59 -31.27869 173.90099 32376 ft 423 kts 256°
2026-05-04 23:00 -31.29192 173.83400 32373 ft 422 kts 256°
2026-05-04 23:00 -31.30507 173.76706 32377 ft 423 kts 256°
2026-05-04 23:01 -31.31805 173.70003 32377 ft 423 kts 256°
2026-05-04 23:01 -31.33111 173.63292 32376 ft 423 kts 256°
2026-05-04 23:02 -31.34397 173.56626 32375 ft 423 kts 256°
2026-05-04 23:02 -31.35704 173.49916 32374 ft 423 kts 256°
2026-05-04 23:03 -31.37006 173.43210 32376 ft 422 kts 256°
2026-05-04 23:03 -31.38295 173.36505 32372 ft 422 kts 256°
2026-05-04 23:04 -31.39575 173.29802 32371 ft 421 kts 256°
2026-05-04 23:04 -31.40853 173.23105 32374 ft 421 kts 256°
2026-05-04 23:05 -31.42127 173.16408 32377 ft 421 kts 256°
2026-05-04 23:05 -31.43390 173.09750 32376 ft 421 kts 256°
2026-05-04 23:06 -31.44663 173.03053 32371 ft 421 kts 256°
2026-05-04 23:06 -31.45927 172.96356 32372 ft 421 kts 256°
2026-05-04 23:07 -31.47190 172.89655 32373 ft 421 kts 256°
2026-05-04 23:07 -31.48442 172.82955 32370 ft 420 kts 256°
2026-05-04 23:08 -31.49697 172.76263 32369 ft 420 kts 256°
2026-05-04 23:08 -31.50945 172.69606 32373 ft 420 kts 256°
2026-05-04 23:09 -31.52180 172.62966 32373 ft 420 kts 257°
2026-05-04 23:09 -31.53422 172.56212 32369 ft 420 kts 257°
2026-05-04 23:10 -31.54659 172.49518 32371 ft 420 kts 257°
2026-05-04 23:10 -31.55896 172.42825 32373 ft 420 kts 257°
2026-05-04 23:11 -31.57127 172.36129 32377 ft 420 kts 257°
2026-05-04 23:11 -31.58359 172.29426 32376 ft 420 kts 257°
2026-05-04 23:12 -31.59577 172.22738 32375 ft 420 kts 257°
2026-05-04 23:12 -31.60795 172.16044 32375 ft 419 kts 257°
2026-05-04 23:13 -31.62011 172.09347 32376 ft 419 kts 257°
2026-05-04 23:13 -31.63218 172.02654 32376 ft 419 kts 257°
2026-05-04 23:14 -31.64416 171.96026 32376 ft 418 kts 257°
2026-05-04 23:14 -31.65619 171.89344 32377 ft 418 kts 257°
2026-05-04 23:15 -31.66817 171.82663 32374 ft 417 kts 257°
2026-05-04 23:15 -31.68005 171.75985 32373 ft 417 kts 257°
2026-05-04 23:16 -31.69190 171.69362 32372 ft 416 kts 257°
2026-05-04 23:16 -31.70371 171.62717 32371 ft 416 kts 257°
2026-05-04 23:17 -31.71544 171.56067 32369 ft 415 kts 257°
2026-05-04 23:17 -31.72719 171.49437 32372 ft 415 kts 256°
2026-05-04 23:18 -31.73890 171.42814 32370 ft 413 kts 256°
2026-05-04 23:18 -31.75042 171.36199 32372 ft 413 kts 257°
2026-05-04 23:19 -31.76188 171.29599 32369 ft 412 kts 256°
2026-05-04 23:19 -31.77337 171.22998 32368 ft 411 kts 256°
2026-05-04 23:20 -31.78484 171.16416 32369 ft 411 kts 256°
2026-05-04 23:20 -31.79621 171.09844 32369 ft 410 kts 256°
2026-05-04 23:21 -31.80753 171.03272 32372 ft 410 kts 256°
2026-05-04 23:21 -31.81870 170.96748 32371 ft 409 kts 256°
2026-05-04 23:22 -31.83001 170.90193 32370 ft 408 kts 256°
2026-05-04 23:22 -31.84118 170.83646 32369 ft 408 kts 256°
2026-05-04 23:23 -31.85234 170.77107 32369 ft 407 kts 256°
2026-05-04 23:23 -31.86346 170.70577 32368 ft 407 kts 256°
2026-05-04 23:24 -31.87450 170.64050 32368 ft 406 kts 256°
2026-05-04 23:24 -31.88548 170.57537 32369 ft 406 kts 256°
2026-05-04 23:25 -31.89634 170.51029 32369 ft 405 kts 256°
2026-05-04 23:25 -31.90717 170.44564 32368 ft 405 kts 256°
2026-05-04 23:26 -31.91621 170.39152 32365 ft 404 kts 256°
2026-05-04 23:26 -31.92698 170.32653 32365 ft 404 kts 256°
2026-05-04 23:27 -31.93771 170.26165 32366 ft 403 kts 256°
2026-05-04 23:27 -31.94850 170.19674 32364 ft 403 kts 256°
2026-05-04 23:28 -31.95918 170.13193 32370 ft 403 kts 256°
2026-05-04 23:28 -31.96981 170.06721 32367 ft 402 kts 256°
2026-05-04 23:29 -31.98043 170.00247 32362 ft 402 kts 257°
2026-05-04 23:29 -31.99082 169.93812 32371 ft 402 kts 257°
2026-05-04 23:30 -32.00133 169.87344 32366 ft 402 kts 257°
2026-05-04 23:30 -32.01181 169.80884 32357 ft 401 kts 257°
2026-05-04 23:31 -32.02220 169.74420 32360 ft 401 kts 257°
2026-05-04 23:31 -32.03261 169.67963 32360 ft 401 kts 257°
2026-05-04 23:32 -32.04292 169.61507 32361 ft 400 kts 257°
2026-05-04 23:32 -32.05322 169.55065 32359 ft 400 kts 257°
2026-05-04 23:33 -32.06347 169.48620 32357 ft 400 kts 257°
2026-05-04 23:33 -32.07370 169.42225 32350 ft 400 kts 257°
2026-05-04 23:34 -32.08383 169.35782 32354 ft 399 kts 257°
2026-05-04 23:34 -32.09399 169.29342 32355 ft 399 kts 257°
2026-05-04 23:35 -32.10409 169.22909 32352 ft 399 kts 257°
2026-05-04 23:35 -32.11422 169.16467 32352 ft 399 kts 257°
2026-05-04 23:36 -32.12426 169.10037 32351 ft 399 kts 257°
2026-05-04 23:36 -32.13422 169.03599 32351 ft 399 kts 258°
2026-05-04 23:37 -32.14417 168.97160 32350 ft 399 kts 258°
2026-05-04 23:37 -32.15407 168.90720 32346 ft 399 kts 258°
2026-05-04 23:38 -32.16399 168.84287 32346 ft 398 kts 258°
2026-05-04 23:38 -32.17388 168.77852 32348 ft 398 kts 258°
2026-05-04 23:39 -32.18370 168.71418 32349 ft 398 kts 258°
2026-05-04 23:39 -32.19342 168.65025 32348 ft 398 kts 258°
2026-05-04 23:40 -32.20318 168.58593 32350 ft 398 kts 258°
2026-05-04 23:40 -32.21288 168.52171 32347 ft 397 kts 258°
2026-05-04 23:41 -32.22256 168.45747 32348 ft 397 kts 258°
2026-05-04 23:41 -32.23220 168.39328 32349 ft 397 kts 258°
2026-05-04 23:42 -32.24177 168.32911 32345 ft 397 kts 258°
2026-05-04 23:42 -32.25138 168.26492 32343 ft 396 kts 258°
2026-05-04 23:43 -32.26088 168.20090 32344 ft 396 kts 258°
2026-05-04 23:43 -32.27031 168.13691 32342 ft 395 kts 258°
2026-05-04 23:44 -32.27973 168.07304 32344 ft 394 kts 258°
2026-05-04 23:44 -32.28912 168.00924 32339 ft 394 kts 258°
2026-05-04 23:45 -32.29845 167.94551 32345 ft 393 kts 258°
2026-05-04 23:45 -32.30775 167.88194 32341 ft 392 kts 258°
2026-05-04 23:46 -32.31693 167.81846 32341 ft 392 kts 258°
2026-05-04 23:46 -32.32610 167.75496 32342 ft 391 kts 258°
2026-05-04 23:47 -32.33524 167.69161 32339 ft 391 kts 258°
2026-05-04 23:47 -32.34427 167.62874 32342 ft 390 kts 258°
2026-05-04 23:48 -32.35329 167.56556 32341 ft 389 kts 258°
2026-05-04 23:48 -32.36230 167.50240 32334 ft 389 kts 258°
2026-05-04 23:49 -32.37128 167.43943 32342 ft 388 kts 258°
2026-05-04 23:49 -32.38019 167.37641 32336 ft 388 kts 258°
2026-05-04 23:50 -32.38905 167.31362 32334 ft 387 kts 258°
2026-05-04 23:50 -32.39786 167.25086 32339 ft 386 kts 258°
2026-05-04 23:51 -32.40666 167.18812 32331 ft 386 kts 258°
2026-05-04 23:51 -32.41541 167.12548 32334 ft 385 kts 258°
2026-05-04 23:52 -32.42410 167.06290 32328 ft 385 kts 258°
2026-05-04 23:52 -32.43276 167.00037 32337 ft 385 kts 259°
2026-05-04 23:53 -32.44133 166.93821 32334 ft 385 kts 259°
2026-05-04 23:53 -32.44995 166.87561 32329 ft 385 kts 259°
2026-05-04 23:54 -32.45848 166.81313 32331 ft 385 kts 259°
2026-05-04 23:54 -32.46700 166.75055 32330 ft 384 kts 259°
2026-05-04 23:55 -32.47545 166.68841 32323 ft 384 kts 259°
2026-05-04 23:56 -32.48813 166.59460 32327 ft 384 kts 259°
2026-05-04 23:56 -32.49659 166.53208 32330 ft 384 kts 259°
2026-05-04 23:57 -32.50504 166.46955 32326 ft 385 kts 259°
2026-05-04 23:57 -32.51341 166.40691 32325 ft 385 kts 260°
2026-05-04 23:58 -32.52171 166.34418 32315 ft 385 kts 260°
2026-05-04 23:58 -32.53000 166.28138 32320 ft 385 kts 260°
2026-05-04 23:59 -32.53826 166.21901 32323 ft 385 kts 260°
2026-05-04 23:59 -32.54653 166.15615 32320 ft 386 kts 260°
2026-05-05 00:00 -32.55470 166.09329 32320 ft 386 kts 261°
2026-05-05 00:00 -32.56280 166.03046 32316 ft 386 kts 261°
2026-05-05 00:01 -32.57098 165.96755 32326 ft 386 kts 260°
2026-05-05 00:01 -32.57911 165.90467 32328 ft 386 kts 261°
2026-05-05 00:02 -32.58723 165.84173 32314 ft 386 kts 261°
2026-05-05 00:02 -32.59524 165.77883 32313 ft 386 kts 261°
2026-05-05 00:03 -32.60324 165.71608 32316 ft 387 kts 261°
2026-05-05 00:03 -32.61134 165.65296 32313 ft 387 kts 261°
2026-05-05 00:04 -32.61948 165.58981 32313 ft 388 kts 261°
2026-05-05 00:04 -32.62746 165.52650 32316 ft 388 kts 261°
2026-05-05 00:05 -32.63541 165.46325 32312 ft 388 kts 261°
2026-05-05 00:05 -32.64332 165.39991 32313 ft 388 kts 261°
2026-05-05 00:06 -32.65122 165.33661 32311 ft 387 kts 261°
2026-05-05 00:06 -32.65903 165.27349 32318 ft 387 kts 261°
2026-05-05 00:07 -32.66684 165.21038 32304 ft 386 kts 261°
2026-05-05 00:07 -32.67448 165.14729 32305 ft 386 kts 261°
2026-05-05 00:08 -32.68213 165.08420 32303 ft 386 kts 261°
2026-05-05 00:08 -32.68978 165.02151 32302 ft 386 kts 261°
2026-05-05 00:09 -32.69743 164.95847 32302 ft 386 kts 261°
2026-05-05 00:09 -32.70501 164.89535 32306 ft 386 kts 261°
2026-05-05 00:10 -32.71258 164.83228 32302 ft 385 kts 261°
2026-05-05 00:10 -32.72022 164.76928 32307 ft 385 kts 261°
2026-05-05 00:11 -32.72641 164.71690 32308 ft 385 kts 261°
2026-05-05 00:11 -32.73394 164.65392 32299 ft 385 kts 261°
2026-05-05 00:12 -32.74136 164.59098 32291 ft 385 kts 261°
2026-05-05 00:12 -32.75000 164.51775 32293 ft 385 kts 261°
2026-05-05 00:13 -32.75615 164.46535 32296 ft 385 kts 262°
2026-05-05 00:13 -32.76353 164.40240 32292 ft 384 kts 262°
2026-05-05 00:14 -32.77086 164.33944 32288 ft 385 kts 262°
2026-05-05 00:14 -32.77818 164.27649 32286 ft 385 kts 262°
2026-05-05 00:15 -32.78541 164.21352 32283 ft 385 kts 262°
2026-05-05 00:15 -32.79262 164.15055 32284 ft 385 kts 262°
2026-05-05 00:16 -32.79983 164.08752 32280 ft 385 kts 262°
2026-05-05 00:16 -32.80699 164.02446 32281 ft 385 kts 262°
2026-05-05 00:17 -32.81408 163.96140 32281 ft 385 kts 262°
2026-05-05 00:17 -32.82112 163.89880 32277 ft 384 kts 262°
2026-05-05 00:18 -32.82821 163.83587 32282 ft 384 kts 262°
2026-05-05 00:18 -32.83525 163.77293 32278 ft 384 kts 262°
2026-05-05 00:19 -32.84229 163.70992 32280 ft 384 kts 262°
2026-05-05 00:19 -32.84924 163.64702 32279 ft 384 kts 262°
2026-05-05 00:20 -32.85616 163.58398 32275 ft 384 kts 262°
2026-05-05 00:20 -32.86304 163.52106 32275 ft 384 kts 262°
2026-05-05 00:21 -32.86985 163.45821 32268 ft 383 kts 262°
2026-05-05 00:21 -32.87672 163.39536 32274 ft 383 kts 262°
2026-05-05 00:22 -32.88350 163.33250 32273 ft 382 kts 262°
2026-05-05 00:22 -32.89024 163.26967 32266 ft 382 kts 263°
2026-05-05 00:23 -32.89692 163.20700 32272 ft 382 kts 263°
2026-05-05 00:23 -32.90357 163.14428 32268 ft 382 kts 263°
2026-05-05 00:24 -32.91022 163.08155 32263 ft 382 kts 263°
2026-05-05 00:24 -32.91684 163.01884 32269 ft 382 kts 263°
2026-05-05 00:25 -32.92515 162.95689 32261 ft 382 kts 260°
2026-05-05 00:25 -32.93434 162.89461 32256 ft 382 kts 261°
2026-05-05 00:26 -32.94348 162.83226 32262 ft 382 kts 261°
2026-05-05 00:26 -32.95260 162.76992 32250 ft 382 kts 261°
2026-05-05 00:27 -32.96169 162.70756 32254 ft 382 kts 261°
2026-05-05 00:27 -32.97076 162.64516 32254 ft 383 kts 261°
2026-05-05 00:28 -32.97980 162.58268 32254 ft 383 kts 261°
2026-05-05 00:28 -32.98879 162.52011 32253 ft 383 kts 261°
2026-05-05 00:29 -32.99776 162.45758 32252 ft 383 kts 261°
2026-05-05 00:29 -33.00667 162.39488 32253 ft 383 kts 261°
2026-05-05 00:30 -33.01557 162.33259 32248 ft 383 kts 261°
2026-05-05 00:30 -33.02441 162.26983 32240 ft 384 kts 262°
2026-05-05 00:31 -33.03328 162.20708 32245 ft 384 kts 262°
2026-05-05 00:31 -33.04212 162.14427 32244 ft 384 kts 262°
2026-05-05 00:32 -33.05089 162.08147 32238 ft 384 kts 262°
2026-05-05 00:32 -33.05970 162.01858 32237 ft 384 kts 262°
2026-05-05 00:33 -33.06852 161.95568 32238 ft 384 kts 262°
2026-05-05 00:33 -33.07720 161.89279 32232 ft 385 kts 262°
2026-05-05 00:34 -33.08588 161.82985 32231 ft 385 kts 262°
2026-05-05 00:34 -33.09451 161.76727 32236 ft 385 kts 262°
2026-05-05 00:35 -33.10314 161.70424 32234 ft 385 kts 262°
2026-05-05 00:35 -33.11173 161.64129 32230 ft 385 kts 262°
2026-05-05 00:36 -33.12032 161.57824 32229 ft 385 kts 262°
2026-05-05 00:36 -33.12884 161.51515 32228 ft 385 kts 262°
2026-05-05 00:37 -33.13737 161.45215 32227 ft 384 kts 262°
2026-05-05 00:37 -33.14580 161.38924 32225 ft 384 kts 263°
2026-05-05 00:38 -33.15418 161.32678 32223 ft 383 kts 263°
2026-05-05 00:38 -33.16257 161.26390 32221 ft 383 kts 263°
2026-05-05 00:39 -33.17092 161.20094 32223 ft 383 kts 263°
2026-05-05 00:39 -33.17924 161.13813 32221 ft 383 kts 263°
2026-05-05 00:40 -33.18750 161.07517 32216 ft 383 kts 263°
2026-05-05 00:40 -33.19568 161.01276 32218 ft 383 kts 263°
2026-05-05 00:41 -33.20394 160.94987 32214 ft 383 kts 263°
2026-05-05 00:41 -33.21209 160.88699 32210 ft 383 kts 263°
2026-05-05 00:42 -33.22026 160.82419 32209 ft 383 kts 263°
2026-05-05 00:42 -33.22837 160.76112 32206 ft 383 kts 263°
2026-05-05 00:43 -33.23649 160.69817 32203 ft 383 kts 263°
2026-05-05 00:43 -33.24455 160.63525 32198 ft 383 kts 263°
2026-05-05 00:44 -33.25260 160.57221 32202 ft 383 kts 263°
2026-05-05 00:44 -33.26056 160.50958 32201 ft 383 kts 263°
2026-05-05 00:45 -33.26851 160.44653 32200 ft 383 kts 264°
2026-05-05 00:45 -33.27650 160.38348 32193 ft 384 kts 264°
2026-05-05 00:46 -33.28438 160.32029 32195 ft 384 kts 264°
2026-05-05 00:46 -33.29226 160.25721 32188 ft 384 kts 264°
2026-05-05 00:47 -33.30011 160.19412 32190 ft 384 kts 264°
2026-05-05 00:47 -33.30793 160.13086 32190 ft 384 kts 264°
2026-05-05 00:48 -33.31568 160.06805 32192 ft 384 kts 264°
2026-05-05 00:48 -33.32343 160.00482 32187 ft 384 kts 264°
2026-05-05 00:49 -33.33115 159.94150 32184 ft 384 kts 264°
2026-05-05 00:49 -33.33894 159.87826 32183 ft 384 kts 264°
2026-05-05 00:50 -33.34660 159.81492 32178 ft 384 kts 264°
2026-05-05 00:50 -33.35428 159.75163 32178 ft 384 kts 264°
2026-05-05 00:51 -33.36193 159.68831 32175 ft 385 kts 264°
2026-05-05 00:51 -33.36952 159.62495 32171 ft 385 kts 264°
2026-05-05 00:52 -33.37709 159.56153 32173 ft 385 kts 264°
2026-05-05 00:52 -33.38464 159.49797 32169 ft 386 kts 264°
2026-05-05 00:53 -33.39219 159.43417 32170 ft 387 kts 265°
2026-05-05 00:53 -33.39961 159.37064 32163 ft 387 kts 265°
2026-05-05 00:54 -33.40703 159.30675 32164 ft 388 kts 265°
2026-05-05 00:54 -33.41446 159.24281 32159 ft 388 kts 265°
2026-05-05 00:55 -33.42179 159.17877 32162 ft 388 kts 265°
2026-05-05 00:55 -33.42921 159.11467 32161 ft 389 kts 265°
2026-05-05 00:56 -33.43652 159.05077 32161 ft 389 kts 265°
2026-05-05 00:56 -33.44268 158.99700 32152 ft 390 kts 265°
2026-05-05 00:57 -33.45001 158.93258 32272 ft 390 kts 265°
2026-05-05 00:57 -33.45368 158.90045 32611 ft 390 kts 265°
2026-05-05 00:57 -33.45731 158.86834 33010 ft 388 kts 265°
2026-05-05 00:57 -33.46210 158.82586 33491 ft 387 kts 265°
2026-05-05 00:58 -33.46568 158.79399 33830 ft 387 kts 265°
2026-05-05 00:58 -33.46810 158.77239 34051 ft 386 kts 265°
2026-05-05 00:58 -33.47170 158.74044 34165 ft 386 kts 265°
2026-05-05 00:59 -33.47879 158.67727 34163 ft 384 kts 265°
2026-05-05 00:59 -33.48584 158.61372 34147 ft 384 kts 265°
2026-05-05 01:00 -33.49285 158.55035 34148 ft 384 kts 265°
2026-05-05 01:00 -33.49979 158.48689 34145 ft 384 kts 265°
2026-05-05 01:01 -33.50675 158.42338 34146 ft 384 kts 265°
2026-05-05 01:01 -33.51366 158.36032 34140 ft 385 kts 265°
2026-05-05 01:02 -33.52058 158.29668 34136 ft 385 kts 265°
2026-05-05 01:02 -33.52743 158.23294 34144 ft 386 kts 265°
2026-05-05 01:03 -33.53432 158.16925 34142 ft 386 kts 265°
2026-05-05 01:03 -33.54111 158.10533 34140 ft 386 kts 265°
2026-05-05 01:04 -33.54794 158.04137 34126 ft 386 kts 265°
2026-05-05 01:04 -33.55810 157.94552 34137 ft 387 kts 265°
2026-05-05 01:05 -33.56482 157.88144 34130 ft 387 kts 265°
2026-05-05 01:05 -33.57150 157.81733 34124 ft 387 kts 265°
2026-05-05 01:06 -33.57817 157.75320 34136 ft 387 kts 265°
2026-05-05 01:06 -33.58480 157.68953 34120 ft 387 kts 265°
2026-05-05 01:07 -33.59141 157.62537 34121 ft 387 kts 266°
2026-05-05 01:07 -33.59794 157.56127 34128 ft 387 kts 266°
2026-05-05 01:08 -33.60448 157.49712 34124 ft 387 kts 265°
2026-05-05 01:08 -33.61106 157.43303 34129 ft 387 kts 266°
2026-05-05 01:09 -33.61754 157.36900 34128 ft 386 kts 266°
2026-05-05 01:09 -33.62392 157.30515 34126 ft 385 kts 266°
2026-05-05 01:10 -33.63026 157.24149 34127 ft 384 kts 266°
2026-05-05 01:10 -33.63660 157.17797 34126 ft 383 kts 266°
2026-05-05 01:11 -33.64279 157.11510 34122 ft 381 kts 266°
2026-05-05 01:11 -33.64897 157.05201 34121 ft 380 kts 266°
2026-05-05 01:12 -33.65513 156.98900 34124 ft 379 kts 266°
2026-05-05 01:12 -33.66126 156.92617 34117 ft 378 kts 266°
2026-05-05 01:13 -33.66734 156.86343 34119 ft 377 kts 266°
2026-05-05 01:13 -33.67330 156.80101 34118 ft 376 kts 266°
2026-05-05 01:14 -33.67927 156.73866 34118 ft 375 kts 266°
2026-05-05 01:14 -33.68515 156.67664 34118 ft 373 kts 266°
2026-05-05 01:15 -33.69101 156.61476 34116 ft 372 kts 266°
2026-05-05 01:15 -33.69678 156.55343 34117 ft 371 kts 266°
2026-05-05 01:16 -33.70256 156.49186 34113 ft 371 kts 266°
2026-05-05 01:16 -33.70826 156.43038 34111 ft 370 kts 266°
2026-05-05 01:17 -33.71385 156.36903 34111 ft 369 kts 266°
2026-05-05 01:17 -33.71949 156.30785 34110 ft 368 kts 266°
2026-05-05 01:18 -33.72514 156.24681 34113 ft 367 kts 266°
2026-05-05 01:18 -33.73074 156.18588 34109 ft 366 kts 267°
2026-05-05 01:19 -33.73622 156.12513 34108 ft 366 kts 267°
2026-05-05 01:19 -33.74162 156.06445 34107 ft 365 kts 267°
2026-05-05 01:20 -33.74702 156.00380 34107 ft 364 kts 267°
2026-05-05 01:20 -33.75237 155.94357 34103 ft 364 kts 267°
2026-05-05 01:21 -33.75772 155.88304 34106 ft 364 kts 267°
2026-05-05 01:21 -33.76309 155.82244 34105 ft 364 kts 268°
2026-05-05 01:22 -33.76839 155.76198 34104 ft 363 kts 268°
2026-05-05 01:22 -33.77364 155.70150 34102 ft 363 kts 268°
2026-05-05 01:23 -33.77889 155.64113 34103 ft 363 kts 268°
2026-05-05 01:23 -33.78404 155.58114 34106 ft 363 kts 268°
2026-05-05 01:24 -33.78916 155.52075 34102 ft 363 kts 268°
2026-05-05 01:24 -33.79430 155.46041 34100 ft 363 kts 268°
2026-05-05 01:25 -33.79941 155.40000 34103 ft 363 kts 268°
2026-05-05 01:25 -33.80452 155.33960 34105 ft 363 kts 268°
2026-05-05 01:26 -33.80953 155.27931 34107 ft 362 kts 268°
2026-05-05 01:26 -33.81456 155.21908 34104 ft 362 kts 268°
2026-05-05 01:27 -33.81951 155.15920 34102 ft 362 kts 268°
2026-05-05 01:27 -33.82445 155.09893 34103 ft 362 kts 269°
2026-05-05 01:28 -33.82935 155.03861 34110 ft 362 kts 269°
2026-05-05 01:28 -33.83425 154.97842 34110 ft 362 kts 269°
2026-05-05 01:29 -33.83910 154.91819 34106 ft 362 kts 269°
2026-05-05 01:29 -33.84393 154.85794 34105 ft 362 kts 269°
2026-05-05 01:30 -33.84867 154.79807 34103 ft 362 kts 269°
2026-05-05 01:30 -33.85345 154.73778 34103 ft 362 kts 269°
2026-05-05 01:31 -33.85824 154.67753 34106 ft 362 kts 269°
2026-05-05 01:31 -33.86298 154.61725 34104 ft 362 kts 269°
2026-05-05 01:32 -33.86765 154.55691 34110 ft 362 kts 269°
2026-05-05 01:32 -33.87229 154.49653 34112 ft 362 kts 269°
2026-05-05 01:33 -33.87691 154.43621 34110 ft 362 kts 270°
2026-05-05 01:33 -33.88151 154.37583 34112 ft 361 kts 270°
2026-05-05 01:34 -33.88606 154.31575 34111 ft 361 kts 270°
2026-05-05 01:34 -33.89058 154.25563 34112 ft 360 kts 270°
2026-05-05 01:35 -33.89499 154.19589 34115 ft 360 kts 270°
2026-05-05 01:35 -33.89946 154.13582 34115 ft 360 kts 270°
2026-05-05 01:36 -33.90396 154.07569 34116 ft 360 kts 270°
2026-05-05 01:36 -33.90836 154.01561 34118 ft 360 kts 270°
2026-05-05 01:37 -33.91271 153.95552 34119 ft 360 kts 270°
2026-05-05 01:37 -33.91706 153.89548 34117 ft 360 kts 270°
2026-05-05 01:38 -33.92136 153.83533 34119 ft 361 kts 270°
2026-05-05 01:38 -33.92568 153.77520 34121 ft 361 kts 270°
2026-05-05 01:39 -33.92993 153.71488 34119 ft 361 kts 270°
2026-05-05 01:39 -33.93411 153.65465 34124 ft 361 kts 270°
2026-05-05 01:40 -33.93830 153.59475 34122 ft 361 kts 270°
2026-05-05 01:40 -33.94248 153.53463 34118 ft 357 kts 271°
2026-05-05 01:41 -33.94659 153.47552 34126 ft 356 kts 271°
2026-05-05 01:41 -33.94864 153.44597 33979 ft 349 kts 271°
2026-05-05 01:41 -33.95063 153.41718 33744 ft 342 kts 271°
2026-05-05 01:42 -33.95188 153.39837 33575 ft 339 kts 271°
2026-05-05 01:42 -33.95435 153.36070 33229 ft 336 kts 271°
2026-05-05 01:42 -33.95560 153.34217 33057 ft 335 kts 271°
2026-05-05 01:42 -33.95750 153.31426 32797 ft 332 kts 271°
2026-05-05 01:43 -33.95940 153.28646 32540 ft 330 kts 271°
2026-05-05 01:43 -33.96184 153.25005 32207 ft 328 kts 272°
2026-05-05 01:43 -33.96307 153.23165 32040 ft 326 kts 272°
2026-05-05 01:43 -33.96489 153.20441 31791 ft 324 kts 272°
2026-05-05 01:44 -33.96668 153.17741 31546 ft 323 kts 272°
2026-05-05 01:44 -33.96845 153.15053 31298 ft 321 kts 272°
2026-05-05 01:44 -33.97020 153.12383 31056 ft 319 kts 272°
2026-05-05 01:44 -33.97192 153.09762 30821 ft 317 kts 272°
2026-05-05 01:45 -33.97366 153.07118 30580 ft 315 kts 272°
2026-05-05 01:45 -33.97537 153.04491 30347 ft 313 kts 273°
2026-05-05 01:45 -33.97708 153.01881 30097 ft 312 kts 273°
2026-05-05 01:45 -33.97876 152.99275 29821 ft 312 kts 272°
2026-05-05 01:46 -33.98042 152.96667 29532 ft 312 kts 272°
2026-05-05 01:46 -33.98209 152.94080 29174 ft 308 kts 272°
2026-05-05 01:46 -33.98370 152.91529 28800 ft 303 kts 272°
2026-05-05 01:46 -33.98529 152.89020 28425 ft 299 kts 272°
2026-05-05 01:47 -33.98689 152.86537 28055 ft 295 kts 272°
2026-05-05 01:47 -33.98846 152.84095 27711 ft 290 kts 272°
2026-05-05 01:47 -33.98998 152.81691 27369 ft 286 kts 272°
2026-05-05 01:47 -33.99147 152.79301 27014 ft 287 kts 271°
2026-05-05 01:48 -33.99296 152.76910 26643 ft 287 kts 271°
2026-05-05 01:48 -33.99446 152.74508 26276 ft 287 kts 271°
2026-05-05 01:48 -33.99598 152.72100 25921 ft 288 kts 270°
2026-05-05 01:48 -33.99748 152.69696 25576 ft 288 kts 270°
2026-05-05 01:49 -33.99897 152.67292 25230 ft 288 kts 270°
2026-05-05 01:49 -34.00046 152.64880 24861 ft 288 kts 270°
2026-05-05 01:49 -34.00195 152.62464 24476 ft 289 kts 269°
2026-05-05 01:49 -34.00342 152.60084 24107 ft 289 kts 269°
2026-05-05 01:50 -34.00489 152.57676 23741 ft 289 kts 269°
2026-05-05 01:50 -34.00637 152.55260 23323 ft 289 kts 269°
2026-05-05 01:50 -34.00785 152.52816 22908 ft 288 kts 269°
2026-05-05 01:50 -34.00929 152.50445 22541 ft 287 kts 269°
2026-05-05 01:51 -34.01075 152.48049 22154 ft 286 kts 269°
2026-05-05 01:51 -34.01217 152.45666 21772 ft 285 kts 269°
2026-05-05 01:51 -34.01358 152.43284 21388 ft 285 kts 268°
2026-05-05 01:51 -34.01499 152.40900 20998 ft 284 kts 268°
2026-05-05 01:52 -34.01641 152.38525 20651 ft 284 kts 268°
2026-05-05 01:52 -34.01784 152.36154 20304 ft 283 kts 268°
2026-05-05 01:52 -34.01926 152.33785 19962 ft 283 kts 268°
2026-05-05 01:52 -34.02067 152.31423 19614 ft 283 kts 268°
2026-05-05 01:53 -34.02207 152.29056 19252 ft 282 kts 268°
2026-05-05 01:53 -34.02345 152.26700 18916 ft 282 kts 268°
2026-05-05 01:53 -34.02483 152.24338 18582 ft 282 kts 268°
2026-05-05 01:53 -34.02620 152.21976 18231 ft 282 kts 267°
2026-05-05 01:54 -34.02758 152.19622 17862 ft 280 kts 268°
2026-05-05 01:54 -34.02893 152.17290 17510 ft 279 kts 268°
2026-05-05 01:54 -34.03027 152.14966 17151 ft 277 kts 268°
2026-05-05 01:54 -34.03157 152.12686 16828 ft 275 kts 268°
2026-05-05 01:55 -34.03287 152.10394 16517 ft 273 kts 268°
2026-05-05 01:55 -34.03417 152.08117 16211 ft 272 kts 268°
2026-05-05 01:55 -34.03425 152.05853 15907 ft 269 kts 276°
2026-05-05 01:55 -34.03221 152.03616 15614 ft 267 kts 278°
2026-05-05 01:56 -34.02988 152.01404 15310 ft 265 kts 278°
2026-05-05 01:56 -34.02756 151.99204 14997 ft 264 kts 278°
2026-05-05 01:56 -34.02528 151.97016 14692 ft 262 kts 278°
2026-05-05 01:56 -34.02307 151.94839 14393 ft 261 kts 278°
2026-05-05 01:57 -34.02088 151.92677 14091 ft 259 kts 278°
2026-05-05 01:57 -34.01872 151.90527 13788 ft 257 kts 278°
2026-05-05 01:57 -34.01657 151.88391 13472 ft 256 kts 278°
2026-05-05 01:57 -34.01443 151.86254 13163 ft 256 kts 278°
2026-05-05 01:58 -34.01227 151.84130 12865 ft 254 kts 278°
2026-05-05 01:58 -34.01012 151.82019 12583 ft 254 kts 278°
2026-05-05 01:58 -34.00797 151.79910 12290 ft 253 kts 278°
2026-05-05 01:58 -34.00584 151.77809 11992 ft 252 kts 278°
2026-05-05 01:59 -34.00368 151.75718 11699 ft 251 kts 278°
2026-05-05 01:59 -34.00149 151.73630 11400 ft 251 kts 278°
2026-05-05 01:59 -33.99932 151.71547 11072 ft 249 kts 278°
2026-05-05 01:59 -33.99731 151.69593 10755 ft 248 kts 278°
2026-05-05 02:00 -33.99519 151.67527 10434 ft 248 kts 278°
2026-05-05 02:00 -33.99307 151.65472 10141 ft 247 kts 278°
2026-05-05 02:00 -33.99097 151.63454 9843 ft 246 kts 278°
2026-05-05 02:00 -33.98883 151.61407 9523 ft 246 kts 278°
2026-05-05 02:01 -33.98669 151.59362 9211 ft 246 kts 278°
2026-05-05 02:01 -33.98549 151.57306 8771 ft 249 kts 266°
2026-05-05 02:01 -33.99025 151.55267 8143 ft 260 kts 244°
2026-05-05 02:01 -34.00033 151.53400 7531 ft 270 kts 237°
2026-05-05 02:02 -34.01129 151.51569 7201 ft 267 kts 236°
2026-05-05 02:02 -34.02200 151.49763 6919 ft 263 kts 237°
2026-05-05 02:02 -34.03252 151.47963 6575 ft 261 kts 237°
2026-05-05 02:02 -34.04278 151.46191 6204 ft 262 kts 237°
2026-05-05 02:03 -34.05331 151.44360 5854 ft 261 kts 236°
2026-05-05 02:03 -34.06364 151.42563 5520 ft 260 kts 236°
2026-05-05 02:03 -34.07390 151.40772 5196 ft 257 kts 235°
2026-05-05 02:03 -34.08406 151.38995 4871 ft 257 kts 235°
2026-05-05 02:04 -34.09412 151.37232 4526 ft 254 kts 235°
2026-05-05 02:04 -34.10392 151.35478 4186 ft 251 kts 239°
2026-05-05 02:04 -34.10979 151.33505 3865 ft 250 kts 255°
2026-05-05 02:04 -34.11309 151.31488 3554 ft 247 kts 257°
2026-05-05 02:05 -34.11601 151.29457 3231 ft 244 kts 258°
2026-05-05 02:05 -34.11892 151.27419 2893 ft 242 kts 258°
2026-05-05 02:05 -34.12054 151.25445 2548 ft 241 kts 276°
2026-05-05 02:05 -34.11355 151.23624 2183 ft 245 kts 311°
2026-05-05 02:06 -34.10004 151.22455 2105 ft 235 kts 328°
2026-05-05 02:06 -34.08587 151.21540 1913 ft 228 kts 330°
2026-05-05 02:06 -34.07141 151.20836 1775 ft 219 kts 343°
2026-05-05 02:06 -34.05706 151.20508 1761 ft 196 kts 347°
2026-05-05 02:07 -34.04435 151.20239 1969 ft 179 kts 345°
2026-05-05 02:07 -34.03244 151.19914 1992 ft 166 kts 342°
2026-05-05 02:07 -34.02227 151.19607 1914 ft 139 kts 341°
2026-05-05 02:07 -34.01303 151.19359 1472 ft 135 kts 346°
2026-05-05 02:08 -34.00370 151.19167 1056 ft 133 kts 344°
2026-05-05 02:08 -33.99478 151.18893 743 ft 134 kts 340°
2026-05-05 02:08 -33.98563 151.18647 533 ft 135 kts 342°
2026-05-05 02:08 -33.97649 151.18396 356 ft 133 kts 340°
2026-05-05 02:09 -33.96744 151.18149 127 ft 134 kts 341°
2026-05-05 02:09 -33.95847 151.17918 39 ft 126 kts 341°
2026-05-05 02:09 -33.95093 151.17719 26 ft 89 kts 346°
2026-05-05 02:09 -33.94649 151.17593 30 ft 53 kts 343°
2026-05-05 02:10 -33.94444 151.17479 29 ft 27 kts 323°
2026-05-05 02:10 -33.94321 151.17346 30 ft 20 kts 320°
2026-05-05 02:10 -33.94256 151.17301 28 ft 4 kts 341°
2026-05-05 02:10 -33.94223 151.17290 28 ft 6 kts 347°
2026-05-05 02:11 -33.94177 151.17277 27 ft 8 kts 347°
2026-05-05 02:11 -33.94114 151.17259 27 ft 11 kts 346°
2026-05-05 02:11 -33.94073 151.17188 17 ft 13 kts 262°
2026-05-05 02:11 -33.94097 151.17078 26 ft 15 kts 253°
2026-05-05 02:12 -33.94120 151.16985 27 ft 12 kts 253°
2026-05-05 02:12 -33.94087 151.16813 28 ft 12 kts 305°
2026-05-05 02:12 -33.94090 151.16722 27 ft 12 kts 253°
2026-05-05 02:13 -33.94113 151.16622 27 ft 13 kts 259°
2026-05-05 02:13 -33.94093 151.16563 26 ft 7 kts 323°
2026-05-05 02:13 -33.94060 151.16548 26 ft 2 kts 345°
2026-05-05 02:13 -33.94038 151.16541 26 ft 4 kts 343°
2026-05-05 02:14 -33.94029 151.16537 26 ft 0 kts 345°
2026-05-05 02:14 -33.94020 151.16534 26 ft 0 kts 345°